Simultaneous Nadir Overpasses (SNOs) Predictions

Prediction of SNOs between GOES-16 and AQUA Satellite Orbit:

Table of predicted SNOs for the next 14.0 days since TLE Epoch: 8/12/2023
Index Date Time (GOES-16) GOES-16 Lat,Lon AQUA Lat,Lon Distance(km) Time Diff (sec)
1 08/12/2023 07:05:16 0.03, -75.21 0.61, -77.85 300.91 80
2 08/14/2023 06:48:15 0.02, -75.21 -0.19, -74.36 98.31 80
3 08/14/2023 19:09:04 -0.00, -75.23 -0.91, -79.40 474.86 80
4 08/16/2023 06:33:53 -0.01, -75.23 -0.96, -70.85 498.05 80
5 08/16/2023 18:54:42 0.01, -75.24 -0.13, -75.90 74.39 80
6 08/18/2023 18:42:59 0.00, -75.27 0.62, -72.39 327.46 80
7 08/19/2023 07:03:40 -0.00, -75.27 0.47, -77.39 242.54 80
8 08/21/2023 06:46:37 0.00, -75.30 -0.31, -73.89 160.24 80
9 08/21/2023 19:07:27 0.00, -75.31 -0.75, -78.94 411.79 80
10 08/23/2023 18:53:03 0.00, -75.35 0.02, -75.43 9.21 80
11 08/25/2023 18:41:18 0.00, -75.38 0.75, -71.91 394.81 80
